Previsão horária em Almaly

Hoje, 21 Janeiro, Quinta-feira

Tempo Temperatura Precipitação Vento Pressão Humidade
00:00 -1°C° 0 mm 3 m/s 697 mmHg 62%
01:00 -1°C° 0 mm 3 m/s 697 mmHg 57%
02:00 -1°C° 0 mm 3 m/s 696 mmHg 52%
03:00 -1°C° 0 mm 2 m/s 696 mmHg 51%
04:00 -2°C° 0 mm 2 m/s 695 mmHg 50%
05:00 -1°C° 0 mm 2 m/s 695 mmHg 50%
06:00 -1°C° 0 mm 2 m/s 694 mmHg 49%
07:00 -1°C° 0 mm 3 m/s 694 mmHg 47%
08:00 -1°C° 0 mm 3 m/s 693 mmHg 46%
09:00 +1°C° 0 mm 3 m/s 693 mmHg 52%
10:00 +3°C° 0 mm 2 m/s 692 mmHg 58%
11:00 +4°C° 0 mm 2 m/s 692 mmHg 65%
12:00 +4°C° 0 mm 2 m/s 691 mmHg 65%
13:00 +4°C° 0 mm 2 m/s 689 mmHg 65%
14:00 +5°C° 0 mm 2 m/s 688 mmHg 65%
15:00 +4°C° 0 mm 2 m/s 688 mmHg 61%
16:00 +3°C° 0 mm 2 m/s 688 mmHg 58%
17:00 +2°C° 0 mm 2 m/s 687 mmHg 54%
18:00 +2°C° 0 mm 2 m/s 687 mmHg 52%
19:00 +2°C° 0 mm 2 m/s 687 mmHg 50%
20:00 +1°C° 0 mm 2 m/s 687 mmHg 48%
21:00 +1°C° 0 mm 2 m/s 687 mmHg 48%
22:00 +1°C° 0 mm 2 m/s 686 mmHg 47%
23:00 +1°C° 0 mm 2 m/s 686 mmHg 47%

Amanhã, 22 Janeiro, Sexta-feira

Tempo Temperatura Precipitação Vento Pressão Humidade
00:00 +1°C° 0 mm 2 m/s 686 mmHg 47%
01:00 +1°C° 0 mm 2 m/s 686 mmHg 47%
02:00 -1°C° 0 mm 2 m/s 685 mmHg 47%
03:00 +1°C° 0 mm 2 m/s 685 mmHg 46%
04:00 +1°C° 0 mm 2 m/s 685 mmHg 44%
05:00 +1°C° 0 mm 2 m/s 685 mmHg 42%
06:00 +1°C° 0 mm 2 m/s 685 mmHg 44%
07:00 -1°C° 0 mm 2 m/s 685 mmHg 45%
08:00 -1°C° 0 mm 2 m/s 686 mmHg 46%
09:00 +2°C° 0 mm 1 m/s 686 mmHg 55%
10:00 +2°C° 0 mm 1 m/s 687 mmHg 64%
11:00 +2°C° 0 mm 1 m/s 688 mmHg 73%
12:00 +1°C° 0 mm 2 m/s 689 mmHg 78%
13:00 0°C° 0 mm 3 m/s 690 mmHg 82%
14:00 -1°C° 0 mm 4 m/s 691 mmHg 87%
15:00 -3°C° 0.2 mm 6 m/s 693 mmHg 85%
16:00 -5°C° 0.2 mm 8 m/s 694 mmHg 83%
17:00 -8°C° 0.2 mm 9 m/s 695 mmHg 81%
18:00 -8°C° 0.2 mm 8 m/s 696 mmHg 84%
19:00 -9°C° 0.2 mm 7 m/s 697 mmHg 87%
20:00 -10°C° 0.2 mm 6 m/s 699 mmHg 91%
21:00 -11°C° 0.1 mm 5 m/s 699 mmHg 90%
22:00 -12°C° 0.1 mm 5 m/s 700 mmHg 90%
23:00 -12°C° 0.1 mm 4 m/s 701 mmHg 90%

Depois de amanhã, 23 Janeiro, Sábado

Tempo Temperatura Precipitação Vento Pressão Humidade
00:00 -13°C° 0.1 mm 3 m/s 701 mmHg 91%
01:00 -12°C° 0.1 mm 2 m/s 701 mmHg 92%
02:00 -11°C° 0.1 mm 1 m/s 701 mmHg 94%
03:00 -11°C° 0.1 mm 1 m/s 702 mmHg 94%
04:00 -12°C° 0.1 mm 1 m/s 702 mmHg 94%
05:00 -12°C° 0.1 mm 0 m/s 702 mmHg 94%
06:00 -12°C° 0 mm 1 m/s 702 mmHg 92%
07:00 -13°C° 0 mm 1 m/s 703 mmHg 90%
08:00 -13°C° 0 mm 1 m/s 703 mmHg 88%
09:00 -12°C° 0 mm 1 m/s 703 mmHg 87%
10:00 -11°C° 0 mm 1 m/s 703 mmHg 86%
11:00 -10°C° 0 mm 1 m/s 703 mmHg 86%
12:00 -10°C° 0 mm 1 m/s 702 mmHg 85%
13:00 -9°C° 0 mm 1 m/s 702 mmHg 85%
14:00 -9°C° 0 mm 1 m/s 702 mmHg 85%
15:00 -10°C° 0 mm 1 m/s 702 mmHg 86%
16:00 -10°C° 0 mm 1 m/s 702 mmHg 87%
17:00 -11°C° 0 mm 1 m/s 702 mmHg 87%
18:00 -11°C° 0 mm 1 m/s 702 mmHg 85%
19:00 -12°C° 0 mm 2 m/s 702 mmHg 83%
20:00 -12°C° 0 mm 2 m/s 702 mmHg 81%
21:00 -12°C° 0 mm 2 m/s 702 mmHg 79%
22:00 -12°C° 0 mm 2 m/s 702 mmHg 76%
23:00 -10°C° 0 mm 2 m/s 702 mmHg 73%

24 Janeiro, Domingo

Tempo Temperatura Precipitação Vento Pressão Humidade
00:00 -10°C° 0 mm 2 m/s 702 mmHg 72%
01:00 -12°C° 0 mm 3 m/s 702 mmHg 70%
02:00 -12°C° 0 mm 3 m/s 702 mmHg 69%
03:00 -12°C° 0.1 mm 3 m/s 702 mmHg 71%
04:00 -10°C° 0.1 mm 3 m/s 702 mmHg 74%
05:00 -10°C° 0.1 mm 3 m/s 702 mmHg 76%
06:00 -10°C° 0 mm 3 m/s 703 mmHg 74%
07:00 -11°C° 0 mm 4 m/s 703 mmHg 72%
08:00 -12°C° 0 mm 4 m/s 703 mmHg 70%
09:00 -11°C° 0 mm 4 m/s 703 mmHg 71%
10:00 -9°C° 0 mm 3 m/s 703 mmHg 72%
11:00 -8°C° 0 mm 3 m/s 704 mmHg 73%
12:00 -9°C° 0 mm 4 m/s 704 mmHg 77%
13:00 -9°C° 0 mm 4 m/s 704 mmHg 81%
14:00 -9°C° 0 mm 4 m/s 704 mmHg 85%
15:00 -9°C° 0.2 mm 3 m/s 704 mmHg 87%
16:00 -9°C° 0.2 mm 2 m/s 704 mmHg 90%
17:00 -9°C° 0.2 mm 1 m/s 704 mmHg 92%
18:00 -10°C° 0.1 mm 1 m/s 704 mmHg 90%
19:00 -10°C° 0.1 mm 1 m/s 705 mmHg 87%
20:00 -10°C° 0.1 mm 1 m/s 705 mmHg 85%
21:00 -10°C° 0 mm 1 m/s 704 mmHg 85%
22:00 -10°C° 0 mm 1 m/s 704 mmHg 85%
23:00 -10°C° 0 mm 0 m/s 704 mmHg 86%

25 Janeiro, Segunda-feira

Tempo Temperatura Precipitação Vento Pressão Humidade
00:00 -10°C° 0.1 mm 0 m/s 704 mmHg 87%
01:00 -10°C° 0.1 mm 0 m/s 704 mmHg 88%
02:00 -10°C° 0.1 mm 0 m/s 704 mmHg 90%
03:00 -10°C° 0.1 mm 0 m/s 704 mmHg 89%
04:00 -10°C° 0.1 mm 0 m/s 704 mmHg 89%
05:00 -10°C° 0.1 mm 0 m/s 704 mmHg 89%
06:00 -10°C° 0 mm 0 m/s 704 mmHg 87%
07:00 -10°C° 0 mm 1 m/s 704 mmHg 86%
08:00 -10°C° 0 mm 1 m/s 704 mmHg 85%
09:00 -9°C° 0 mm 1 m/s 704 mmHg 85%
10:00 -8°C° 0 mm 1 m/s 704 mmHg 85%
11:00 -7°C° 0 mm 1 m/s 704 mmHg 85%
12:00 -7°C° 0 mm 1 m/s 704 mmHg 88%
13:00 -7°C° 0 mm 1 m/s 703 mmHg 90%
14:00 -7°C° 0 mm 1 m/s 703 mmHg 93%
15:00 -8°C° 0 mm 1 m/s 703 mmHg 91%
16:00 -10°C° 0 mm 1 m/s 703 mmHg 90%
17:00 -11°C° 0 mm 1 m/s 703 mmHg 88%
18:00 -11°C° 0 mm 1 m/s 703 mmHg 86%
19:00 -11°C° 0 mm 1 m/s 703 mmHg 83%
20:00 -12°C° 0 mm 1 m/s 703 mmHg 81%
21:00 -11°C° 0 mm 1 m/s 703 mmHg 79%
22:00 -11°C° 0 mm 1 m/s 703 mmHg 77%
23:00 -10°C° 0 mm 1 m/s 703 mmHg 75%

26 Janeiro, Terça-feira

Tempo Temperatura Precipitação Vento Pressão Humidade
00:00 -10°C° 0 mm 0 m/s 703 mmHg 75%
01:00 -11°C° 0 mm 0 m/s 703 mmHg 75%
02:00 -11°C° 0 mm 0 m/s 702 mmHg 75%
03:00 -10°C° 0 mm 0 m/s 702 mmHg 74%
04:00 -10°C° 0 mm 0 m/s 702 mmHg 73%
05:00 -10°C° 0 mm 0 m/s 702 mmHg 73%
06:00 -10°C° 0 mm 0 m/s 702 mmHg 73%
07:00 -10°C° 0 mm 0 m/s 703 mmHg 73%
08:00 -10°C° 0 mm 0 m/s 703 mmHg 73%
09:00 -9°C° 0 mm 0 m/s 703 mmHg 75%
10:00 -8°C° 0 mm 1 m/s 703 mmHg 77%
11:00 -7°C° 0 mm 1 m/s 703 mmHg 78%
12:00 -7°C° 0 mm 1 m/s 703 mmHg 82%
13:00 -7°C° 0 mm 0 m/s 703 mmHg 85%
14:00 -7°C° 0 mm 0 m/s 702 mmHg 89%
15:00 -8°C° 0 mm 0 m/s 702 mmHg 87%
16:00 -9°C° 0 mm 0 m/s 702 mmHg 85%
17:00 -11°C° 0 mm 1 m/s 702 mmHg 83%
18:00 -11°C° 0 mm 1 m/s 702 mmHg 80%
19:00 -11°C° 0 mm 1 m/s 703 mmHg 77%
20:00 -11°C° 0 mm 1 m/s 703 mmHg 74%
21:00 -11°C° 0 mm 1 m/s 703 mmHg 73%
22:00 -11°C° 0 mm 1 m/s 703 mmHg 71%
23:00 -11°C° 0 mm 1 m/s 703 mmHg 70%
Mostrar mais

Necessitamos do seu Consentimento

A Meteoprog e os seus Fornecedores de Serviços podem armazenar e aceder a dados pessoais como cookies, identificadores do dispositivo ou outras tecnologias semelhantes existentes no seu dispositivo e processar estes dados para personalizar conteúdos e anúncios, assim como funcionalidades nas redes sociais e análise de tráfego.

  • Armazenar e/ou aceder a informações no seu dispositivo

    Os cookies, identificadores do dispositivo ou outras informações podem ser armazenados ou acedidos no seu dispositivo, para os fins acima indicados.

  • Anúncios e conteúdos personalizados, medição de anúncios e conteúdos, dados sobre o público-alvo e desenvolvimento de produtos

    Os anúncios e os conteúdos podem ser personalizados com base num perfil. Podem ser adicionados dados adicionais para uma maior personalização dos anúncios e dos conteúdos. A eficácia dos anúncios e dos conteúdos pode ser medida. Podem ser obtidas informações sobre o público que visualizou os anúncios e os conteúdos. Estes dados podem ser usados para desenvolver ou melhorar sistemas, softwares ou a experiência do utilizador.

Ao clicar em "Eu concordo”, permitirá o uso de cookies, identificadores do dispositivo e web beacons mencionados ou outras tecnologias semelhantes. As configurações do navegador do seu dispositivo podem ser alteradas.

Para certos fins, podem ser invocados interesses legítimos ao invés de consentimento. Pode ler mais informação sobre este assunto na nossa Política de Privacidade e Cookies.